Regional Weather Roundup
Issued by NWS

Home | Current Version | Previous Version | Graphics & Text | Print | Product List | Glossary On
Versions: 1 2 3 4 5 6 7 8 9 10 11 12 13 14 15 16 17 18 19 20 21 22 23 24 25 26 27 28 29 30 31 32 33 34 35 36 37 38 39 40 41 42 43 44 45 46 47 48 49 50
000
ASUS45 KBOI 231010
RWRID
WEATHER ROUNDUP FOR IDAHO
NATIONAL WEATHER SERVICE BOISE ID
400 AM MDT WED JUL 23 2014

NOTE: "FAIR" INDICATES FEW OR NO CLOUDS BELOW 12000 FEET
WITH NO SIGNIFICANT WEATHER AND/OR OBSTRUCTIONS TO VISIBILITY

IDZ012-014-231100-
SOUTHWEST IDAHO


CITY           SKY/WX    TMP DP  RH WIND       PRES   REMARKS
BOISE          CLOUDY    72  52  49 SW8       30.08R
CALDWELL       CLOUDY    66  54  63 W6        30.07R
MOUNTAIN HOME  PTCLDY    73  50  45 NW16G28   30.04R
$$

IDZ016-017-231100-
SOUTHCENTRAL IDAHO


CITY           SKY/WX    TMP DP  RH WIND       PRES   REMARKS
BURLEY         CLEAR     60  47  61 SW8       30.07R
JEROME         CLEAR     66  49  54 SW15      30.06R
TWIN FALLS     CLEAR     69  46  43 S14G23    30.09R
$$

IDZ019>023-231100-
SOUTHEAST IDAHO


CITY           SKY/WX    TMP DP  RH WIND       PRES   REMARKS
IDAHO FALLS    PTCLDY    57  47  69 CALM      30.09S
POCATELLO      CLEAR     63  44  50 SW7       30.07S
REXBURG        PTCLDY    58  49  72 N3        30.11S
$$

IDZ006-010-011-018-031-032-231100-
CENTRAL IDAHO MOUNTAINS


CITY           SKY/WX    TMP DP  RH WIND       PRES   REMARKS
MCCALL         LGT RAIN  57  53  86 E5        30.27F
HAILEY         CLEAR     59  45  58 NW7       30.16S
STANLEY          N/A     50  48  93 CALM      30.31R
SALMON         MOCLDY    63  52  67 N9        30.16S
CHALLIS        MOCLDY    62  48  60 NW5       30.18R
$$

IDZ002-004-006-007-026-231100-
NORTHERN IDAHO


CITY           SKY/WX    TMP DP  RH WIND       PRES   REMARKS
LEWISTON       LGT RAIN  66  59  78 E6        30.09R
LOWELL           N/A     68  58  70 N5        30.12F
COEUR D`ALENE  CLOUDY    61  57  88 N7        30.07F
MULLAN PASS    LGT RAIN  50  48  93 VRB7      30.31R
$$


USA.gov is the U.S. government's official web portal to all federal, state and local government web resources and services.